Weather in Novobrattsevskiy Village

Russia / Moscow Oblast     55°51′11″N   37°23′10″E
temp.,
°C
wind,
m/s
gust,
m/s
humid.,
%
clouds,
%
prec.,
mm/h
press.,
hPa
HPBL,
m
1 march, mon
mon100:00−7ne119666 0.1 102121
03:00−9n019461 0.1 102321
06:00−9w119519 0.0 102321
09:00−6w249748 0.1 1024192
12:00−2wsw359691 0.0 1023329
15:000wsw5109574 0.0 1022627
18:00+1wsw51191100 0.0 1019595
21:00+1w51393100 0.0 1018661
2 march, tue
tue200:00+1w61392100 0.0 1015639
03:00+1wnw61392100 0.0 1013852
06:00+1w51293100 0.0 1010661
09:00+1wnw41197100 0.1 1010710
12:00+1wnw49100100 0.2 1009604
15:00+1nw51093100 0.3 1008865
18:00−1nw4128777 0.1 1008472
21:00−1nw5119185 0.1 1011978
3 march, wed
wed300:00−2nw4119095 0.1 10121045
03:00−3nnw5128694 0.1 1014883
06:00−5nw5128818 0.0 1015822
09:00−5nw4128538 0.0 1017888
12:00−1wnw598727 0.0 1017734
15:00−1wnw598760 0.1 1016873
18:00−1wnw51086100 0.0 1015796
21:00−1w51088100 0.1 1015777
4 march, thu
thu400:00−2wsw41190100 0.1 1012770
03:00−1wsw61489100 0.1 1008724
06:00−1wsw7158799 0.0 1004762
09:00−1w7148699 0.0 10021066
12:000w71291100 0.1 10001045
15:000wsw61199100 0.4 1000904
18:00−3wnw41184100 2.1 1000818
21:00−3nw3987100 2.1 1002385
5 march, fri
fri500:00−6wnw379220 0.0 1005201
03:00−7nw379523 0.0 1006221
06:00−9nnw229518 0.0 100856
09:00−8nw12949 0.0 1009132
12:00−5nw12830 0.0 1010504
15:00−4w127712 0.0 1011643
18:00−6s118525 0.0 101121
21:00−8ssw118612 0.0 101221